Location: B�rgermoos
(47.6500°N, 9.0667°E)
Time: 03:54:21
(UTC+00:00)

Vanguard 2 Rocket - Pass Details

Date: 07 August 2021
Orbit: 556 x 3323 km, 32.9° (Epoch: 27 September)

Event Time Altitude Azimuth Distance (km) Brightness Sun altitude
Rises 06:31:38 0° 237° (WSW) 3,201 9.2 22.4°
Reaches altitude 10° 06:35:49 10° 205° (SSW) 1,971 8.5 23.1°
Maximum altitude 06:37:20 12° 184° (S) 1,796 8.5 23.3°
Drops below altitude 10° 06:38:46 10° 162° (SSE) 1,852 8.8 23.6°
Sets 06:42:19 0° 127° (SE) 2,733 10.2 24.2°
